| time (UTC) | temp F | wind direction | speed MPH | gust MPH | rain 1hr in | rain 24hr in | rain mn in | humidity % | barometer mb |
| 20260504110239 | 54 | 179 | 2.0 | 5.0 | 0.00 | 0.04 | 0.02 | 78 | 1013.6 |
| 20260504100504 | 54 | 134 | 2.0 | 9.0 | 0.01 | 0.05 | 0.02 | 83 | 1013.8 |
| 20260504081731 | 47 | 85 | 1.0 | 3.0 | 0.00 | 0.07 | 0.01 | 95 | 1013.6 |
| 20260504081230 | 47 | 85 | 1.0 | 4.0 | 0.00 | 0.08 | 0.01 | 95 | 1013.5 |
| 20260504080732 | 47 | 85 | 2.0 | 4.0 | 0.00 | 0.08 | 0.01 | 95 | 1013.5 |
| 20260504080450 | 47 | 85 | 2.0 | 4.0 | 0.00 | 0.08 | 0.01 | 95 | 1013.5 |
| 20260504070231 | 46 | 140 | 3.0 | 5.0 | 0.00 | 0.13 | 0.01 | 96 | 1013.1 |
| 20260504060231 | 45 | 20 | 4.0 | 6.0 | 0.00 | 0.16 | 0.01 | 96 | 1012.6 |
| 20260504050729 | 45 | 24 | 4.0 | 6.0 | 0.00 | 0.17 | 0.01 | 96 | 1012.4 |
| 20260504050229 | 45 | 23 | 4.0 | 6.0 | 0.00 | 0.18 | 0.01 | 96 | 1012.4 |
| 20260504045730 | 45 | 38 | 3.0 | 6.0 | 0.00 | 0.19 | 0.01 | 96 | 1012.4 |
| 20260504045229 | 45 | 32 | 3.0 | 7.0 | 0.00 | 0.20 | 0.01 | 96 | 1012.3 |
| 20260504044954 | 45 | 25 | 3.0 | 7.0 | 0.00 | 0.20 | 0.01 | 96 | 1012.3 |
| 20260504044228 | 45 | 0 | 3.0 | 7.0 | 0.00 | 0.21 | 0.01 | 96 | 1012.3 |
| 20260504043951 | 45 | 21 | 4.0 | 7.0 | 0.00 | 0.22 | 0.01 | 96 | 1012.3 |
| 20260504043227 | 45 | 18 | 4.0 | 7.0 | 0.00 | 0.22 | 0.01 | 96 | 1012.3 |
| 20260504042729 | 45 | 16 | 4.0 | 7.0 | 0.00 | 0.23 | 0.01 | 96 | 1012.3 |
| 20260504041728 | 45 | 28 | 3.0 | 7.0 | 0.00 | 0.24 | 0.01 | 96 | 1012.3 |
| 20260504041228 | 45 | 17 | 4.0 | 7.0 | 0.00 | 0.26 | 0.01 | 96 | 1012.2 |
| 20260504040728 | 45 | 39 | 4.0 | 6.0 | 0.00 | 0.27 | 0.01 | 96 | 1012.2 |
| 20260504040228 | 45 | 30 | 4.0 | 7.0 | 0.00 | 0.28 | 0.01 | 96 | 1012.2 |
| 20260504035728 | 45 | 25 | 4.0 | 7.0 | 0.00 | 0.29 | 0.01 | 96 | 1012.1 |
| 20260504035227 | 45 | 16 | 3.0 | 6.0 | 0.00 | 0.31 | 0.01 | 96 | 1012.1 |
| 20260504034728 | 45 | 14 | 5.0 | 6.0 | 0.00 | 0.31 | 0.01 | 96 | 1012.1 |
| 20260504034228 | 45 | 37 | 3.0 | 6.0 | 0.00 | 0.33 | 0.01 | 96 | 1012.0 |
| 20260504033727 | 45 | 31 | 5.0 | 6.0 | 0.00 | 0.34 | 0.01 | 96 | 1011.9 |
| 20260504033229 | 45 | 21 | 4.0 | 6.0 | 0.00 | 0.35 | 0.01 | 96 | 1012.0 |
| 20260504032727 | 45 | 28 | 4.0 | 7.0 | 0.00 | 0.35 | 0.01 | 96 | 1011.9 |
| 20260504032227 | 45 | 37 | 4.0 | 7.0 | 0.00 | 0.37 | 0.01 | 96 | 1011.9 |
| 20260504031727 | 45 | 39 | 3.0 | 6.0 | 0.00 | 0.39 | 0.01 | 96 | 1012.0 |
| 20260504031226 | 45 | 17 | 4.0 | 6.0 | 0.00 | 0.39 | 0.01 | 96 | 1012.1 |
| 20260504030726 | 45 | 16 | 3.0 | 6.0 | 0.00 | 0.40 | 0.01 | 96 | 1012.0 |
| 20260504030226 | 45 | 8 | 4.0 | 9.0 | 0.00 | 0.41 | 0.01 | 96 | 1012.0 |
| 20260504025226 | 45 | 32 | 4.0 | 7.0 | 0.00 | 0.42 | 0.01 | 96 | 1011.8 |
| 20260504024726 | 45 | 27 | 5.0 | 7.0 | 0.00 | 0.43 | 0.01 | 96 | 1011.9 |
| 20260504024227 | 45 | 41 | 4.0 | 6.0 | 0.00 | 0.43 | 0.01 | 96 | 1011.8 |
| 20260504022726 | 45 | 44 | 3.0 | 10.0 | 0.00 | 0.49 | 0.01 | 96 | 1011.9 |
| 20260504022454 | 45 | 8 | 6.0 | 10.0 | 0.01 | 0.51 | 0.01 | 96 | 1011.8 |
| 20260504021726 | 45 | 23 | 4.0 | 9.0 | 0.01 | 0.54 | 0.01 | 96 | 1011.8 |
| 20260504021225 | 45 | 27 | 4.0 | 10.0 | 0.01 | 0.54 | 0.01 | 96 | 1011.9 |
| 20260504020725 | 45 | 18 | 4.0 | 10.0 | 0.01 | 0.55 | 0.01 | 96 | 1011.8 |
| 20260504020225 | 45 | 6 | 4.0 | 10.0 | 0.01 | 0.56 | 0.01 | 96 | 1011.8 |
| 20260504015945 | 45 | 0 | 4.0 | 9.0 | 0.01 | 0.57 | 0.01 | 96 | 1011.8 |
| 20260504015224 | 45 | 0 | 5.0 | 9.0 | 0.01 | 0.57 | 0.01 | 96 | 1011.8 |
| 20260504014731 | 45 | 0 | 4.0 | 10.0 | 0.01 | 0.57 | 0.01 | 96 | 1011.7 |
| 20260504013725 | 45 | 28 | 4.0 | 9.0 | 0.01 | 0.58 | 0.01 | 96 | 1011.8 |
| 20260504013224 | 45 | 27 | 4.0 | 7.0 | 0.01 | 0.58 | 0.01 | 96 | 1011.7 |
| 20260504012724 | 45 | 13 | 4.0 | 7.0 | 0.01 | 0.58 | 0.01 | 96 | 1011.7 |
| 20260504012225 | 45 | 17 | 4.0 | 9.0 | 0.00 | 0.58 | 0.00 | 96 | 1011.8 |
| 20260504011724 | 45 | 13 | 4.0 | 9.0 | 0.00 | 0.58 | 0.00 | 96 | 1011.7 |
| 20260504011223 | 45 | 25 | 3.0 | 9.0 | 0.00 | 0.58 | 0.00 | 96 | 1011.6 |
| 20260504010724 | 45 | 21 | 5.0 | 9.0 | 0.00 | 0.59 | 0.00 | 96 | 1011.6 |
| 20260504010224 | 45 | 28 | 5.0 | 7.0 | 0.00 | 0.59 | 0.00 | 96 | 1011.6 |
| 20260504005723 | 45 | 10 | 4.0 | 7.0 | 0.00 | 0.60 | 0.00 | 96 | 1011.7 |
| 20260504005448 | 45 | 18 | 5.0 | 9.0 | 0.00 | 0.60 | 0.00 | 96 | 1011.6 |
| 20260504004724 | 45 | 24 | 4.0 | 9.0 | 0.00 | 0.60 | 0.00 | 96 | 1011.5 |
| 20260504004223 | 45 | 28 | 4.0 | 10.0 | 0.00 | 0.60 | 0.00 | 96 | 1011.5 |
| 20260504003723 | 45 | 23 | 4.0 | 10.0 | 0.00 | 0.61 | 0.00 | 96 | 1011.4 |
| 20260504003223 | 46 | 18 | 5.0 | 11.0 | 0.00 | 0.61 | 0.00 | 96 | 1011.5 |
| 20260504002723 | 46 | 37 | 5.0 | 11.0 | 0.00 | 0.61 | 0.00 | 96 | 1011.4 |
| 20260504002222 | 46 | 27 | 4.0 | 11.0 | 0.00 | 0.61 | 0.00 | 96 | 1011.4 |
| 20260504001722 | 46 | 49 | 6.0 | 11.0 | 0.00 | 0.61 | 0.00 | 96 | 1011.4 |
| 20260504001441 | 46 | 32 | 6.0 | 11.0 | 0.00 | 0.61 | 0.00 | 96 | 1011.4 |
| 20260504000722 | 46 | 28 | 6.0 | 11.0 | 0.00 | 0.61 | 0.00 | 96 | 1011.4 |
| 20260504000222 | 46 | 31 | 5.0 | 10.0 | 0.00 | 0.61 | 0.00 | 96 | 1011.4 |
| 20260503235722 | 46 | 23 | 4.0 | 11.0 | 0.00 | 0.62 | 0.00 | 96 | 1011.5 |
| 20260503235222 | 46 | 38 | 6.0 | 11.0 | 0.00 | 0.62 | 0.00 | 96 | 1011.4 |
| 20260503234722 | 46 | 25 | 6.0 | 10.0 | 0.00 | 0.62 | 0.00 | 96 | 1011.4 |
| 20260503234441 | 46 | 47 | 6.0 | 12.0 | 0.00 | 0.62 | 0.00 | 96 | 1011.3 |
| 20260503233721 | 46 | 42 | 6.0 | 12.0 | 0.00 | 0.62 | 0.00 | 96 | 1011.4 |
| 20260503233221 | 46 | 42 | 5.0 | 10.0 | 0.00 | 0.63 | 0.00 | 96 | 1011.4 |
| 20260503232721 | 46 | 27 | 6.0 | 10.0 | 0.00 | 0.63 | 0.00 | 96 | 1011.3 |
| 20260503232222 | 46 | 28 | 6.0 | 10.0 | 0.00 | 0.63 | 0.00 | 96 | 1011.3 |
| 20260503231720 | 46 | 13 | 5.0 | 9.0 | 0.00 | 0.63 | 0.00 | 96 | 1011.3 |
| 20260503231447 | 46 | 34 | 4.0 | 12.0 | 0.00 | 0.63 | 0.00 | 96 | 1011.3 |
| 20260503230720 | 46 | 37 | 7.0 | 12.0 | 0.00 | 0.64 | 0.00 | 96 | 1011.3 |
| 20260503230220 | 46 | 30 | 7.0 | 12.0 | 0.00 | 0.64 | 0.00 | 96 | 1011.3 |
| 20260503225720 | 46 | 41 | 6.0 | 12.0 | 0.00 | 0.65 | 0.65 | 96 | 1011.3 |
| 20260503225221 | 46 | 28 | 4.0 | 13.0 | 0.00 | 0.65 | 0.65 | 96 | 1011.2 |
| 20260503224720 | 46 | 1 | 4.0 | 13.0 | 0.00 | 0.66 | 0.65 | 96 | 1011.2 |
| 20260503224220 | 46 | 30 | 7.0 | 12.0 | 0.00 | 0.66 | 0.65 | 96 | 1011.1 |
| 20260503223720 | 46 | 45 | 6.0 | 12.0 | 0.00 | 0.68 | 0.65 | 96 | 1011.1 |
| 20260503223219 | 46 | 0 | 4.0 | 12.0 | 0.00 | 0.69 | 0.65 | 96 | 1011.1 |
| 20260503222720 | 46 | 37 | 8.0 | 12.0 | 0.00 | 0.70 | 0.65 | 96 | 1011.1 |
| 20260503222220 | 46 | 353 | 6.0 | 11.0 | 0.00 | 0.71 | 0.65 | 96 | 1011.1 |
| 20260503221720 | 46 | 0 | 6.0 | 12.0 | 0.00 | 0.72 | 0.65 | 96 | 1011.0 |
| 20260503221220 | 46 | 37 | 7.0 | 12.0 | 0.00 | 0.72 | 0.65 | 96 | 1011.1 |
| 20260503220719 | 46 | 14 | 6.0 | 12.0 | 0.00 | 0.72 | 0.65 | 96 | 1011.1 |
| 20260503220219 | 46 | 41 | 7.0 | 11.0 | 0.00 | 0.72 | 0.65 | 96 | 1011.0 |
| 20260503215719 | 46 | 331 | 4.0 | 10.0 | 0.00 | 0.73 | 0.65 | 96 | 1010.9 |
| 20260503215219 | 46 | 23 | 3.0 | 9.0 | 0.00 | 0.73 | 0.65 | 96 | 1010.9 |
| 20260503214938 | 46 | 45 | 6.0 | 11.0 | 0.00 | 0.74 | 0.65 | 96 | 1011.0 |
| 20260503214219 | 47 | 21 | 7.0 | 11.0 | 0.00 | 0.74 | 0.65 | 96 | 1010.9 |
| 20260503213718 | 47 | 21 | 6.0 | 13.0 | 0.00 | 0.75 | 0.65 | 96 | 1010.8 |
| 20260503213219 | 47 | 8 | 7.0 | 13.0 | 0.00 | 0.76 | 0.65 | 96 | 1010.8 |
| 20260503212719 | 47 | 30 | 7.0 | 12.0 | 0.00 | 0.76 | 0.65 | 96 | 1010.8 |
| 20260503212218 | 47 | 16 | 7.0 | 13.0 | 0.00 | 0.77 | 0.65 | 96 | 1010.8 |
| 20260503211718 | 47 | 23 | 8.0 | 13.0 | 0.00 | 0.77 | 0.65 | 96 | 1010.8 |
| 20260503211218 | 47 | 16 | 6.0 | 11.0 | 0.00 | 0.78 | 0.65 | 96 | 1010.7 |
| 20260503210717 | 47 | 18 | 5.0 | 12.0 | 0.00 | 0.78 | 0.65 | 96 | 1010.7 |
| 20260503210439 | 47 | 8 | 6.0 | 12.0 | 0.00 | 0.78 | 0.65 | 96 | 1010.8 |
| 20260503205717 | 47 | 35 | 6.0 | 12.0 | 0.00 | 0.78 | 0.65 | 96 | 1010.6 |
| 20260503205443 | 47 | 27 | 7.0 | 13.0 | 0.00 | 0.78 | 0.65 | 96 | 1010.6 |
| 20260503204717 | 47 | 0 | 6.0 | 13.0 | 0.00 | 0.78 | 0.65 | 96 | 1010.6 |
| 20260503204217 | 47 | 31 | 8.0 | 12.0 | 0.00 | 0.78 | 0.65 | 96 | 1010.6 |
| 20260503203717 | 47 | 0 | 8.0 | 12.0 | 0.00 | 0.78 | 0.65 | 96 | 1010.5 |
| 20260503203215 | 47 | 61 | 6.0 | 14.0 | 0.00 | 0.78 | 0.65 | 96 | 1010.4 |
| 20260503202715 | 47 | 23 | 9.0 | 14.0 | 0.00 | 0.78 | 0.65 | 96 | 1010.4 |
| 20260503202216 | 47 | 31 | 6.0 | 11.0 | 0.00 | 0.78 | 0.65 | 96 | 1010.3 |
| 20260503201713 | 47 | 31 | 5.0 | 12.0 | 0.00 | 0.78 | 0.65 | 96 | 1010.3 |
| 20260503201213 | 47 | 28 | 7.0 | 14.0 | 0.00 | 0.78 | 0.65 | 96 | 1010.2 |
| 20260503200711 | 47 | 8 | 6.0 | 16.0 | 0.00 | 0.78 | 0.65 | 96 | 1010.0 |
| 20260503200432 | 47 | 0 | 9.0 | 16.0 | 0.00 | 0.78 | 0.65 | 96 | 1010.0 |
| 20260503195713 | 47 | 13 | 9.0 | 14.0 | 0.00 | 0.78 | 0.65 | 96 | 1010.0 |
| 20260503195211 | 47 | 27 | 5.0 | 13.0 | 0.00 | 0.78 | 0.65 | 96 | 1010.0 |
| 20260503194929 | 47 | 18 | 6.0 | 14.0 | 0.00 | 0.78 | 0.65 | 95 | 1009.8 |
| 20260503194211 | 47 | 27 | 8.0 | 14.0 | 0.00 | 0.78 | 0.65 | 95 | 1009.8 |
| 20260503193935 | 47 | 30 | 7.0 | 14.0 | 0.00 | 0.78 | 0.65 | 96 | 1009.8 |
| 20260503193209 | 47 | 32 | 9.0 | 13.0 | 0.00 | 0.78 | 0.65 | 96 | 1009.7 |
| 20260503192706 | 47 | 25 | 7.0 | 15.0 | 0.00 | 0.78 | 0.65 | 96 | 1009.7 |
| 20260503192427 | 48 | 23 | 9.0 | 15.0 | 0.00 | 0.78 | 0.65 | 96 | 1009.6 |
| 20260503191708 | 48 | 13 | 8.0 | 13.0 | 0.00 | 0.78 | 0.65 | 96 | 1009.6 |
| 20260503191205 | 48 | 0 | 7.0 | 13.0 | 0.00 | 0.78 | 0.65 | 96 | 1009.5 |
| 20260503190705 | 48 | 25 | 5.0 | 12.0 | 0.00 | 0.78 | 0.65 | 96 | 1009.5 |
| 20260503190205 | 48 | 31 | 6.0 | 13.0 | 0.00 | 0.78 | 0.65 | 96 | 1009.4 |
| 20260503185702 | 48 | 351 | 8.0 | 13.0 | 0.00 | 0.78 | 0.65 | 96 | 1009.4 |
| 20260503185203 | 48 | 17 | 4.0 | 12.0 | 0.00 | 0.78 | 0.65 | 96 | 1009.4 |
| 20260503184702 | 48 | 6 | 7.0 | 14.0 | 0.00 | 0.78 | 0.65 | 96 | 1009.3 |
| 20260503184203 | 48 | 6 | 6.0 | 14.0 | 0.00 | 0.78 | 0.65 | 96 | 1009.3 |
| 20260503183703 | 48 | 10 | 8.0 | 15.0 | 0.00 | 0.78 | 0.65 | 96 | 1009.2 |
| 20260503183202 | 48 | 0 | 5.0 | 15.0 | 0.00 | 0.78 | 0.65 | 96 | 1009.1 |
| 20260503182703 | 48 | 6 | 6.0 | 12.0 | 0.00 | 0.78 | 0.65 | 96 | 1009.1 |
| 20260503182202 | 48 | 18 | 6.0 | 13.0 | 0.00 | 0.78 | 0.65 | 96 | 1009.0 |
| 20260503181702 | 48 | 51 | 7.0 | 13.0 | 0.00 | 0.78 | 0.65 | 95 | 1009.0 |
| 20260503181203 | 48 | 348 | 8.0 | 13.0 | 0.00 | 0.78 | 0.65 | 95 | 1009.0 |
| 20260503180704 | 48 | 28 | 7.0 | 13.0 | 0.00 | 0.78 | 0.65 | 96 | 1008.9 |
| 20260503180203 | 48 | 10 | 5.0 | 12.0 | 0.00 | 0.78 | 0.65 | 96 | 1008.9 |
| 20260503175700 | 48 | 34 | 7.0 | 15.0 | 0.00 | 0.78 | 0.65 | 96 | 1008.7 |
| 20260503175200 | 48 | 348 | 6.0 | 15.0 | 0.00 | 0.78 | 0.65 | 96 | 1008.8 |
| 20260503174700 | 49 | 13 | 8.0 | 13.0 | 0.00 | 0.78 | 0.65 | 96 | 1008.6 |
| 20260503174153 | 49 | 355 | 6.0 | 13.0 | 0.00 | 0.78 | 0.65 | 96 | 1008.8 |
| 20260503173653 | 49 | 8 | 8.0 | 16.0 | 0.00 | 0.78 | 0.65 | 96 | 1008.7 |
| 20260503173154 | 49 | 23 | 9.0 | 16.0 | 0.00 | 0.78 | 0.65 | 96 | 1008.7 |
| 20260503172650 | 49 | 0 | 7.0 | 12.0 | 0.00 | 0.78 | 0.65 | 96 | 1008.6 |
| 20260503172151 | 49 | 1 | 6.0 | 14.0 | 0.00 | 0.78 | 0.65 | 95 | 1008.6 |
| 20260503171651 | 49 | 0 | 10.0 | 14.0 | 0.00 | 0.78 | 0.65 | 96 | 1008.6 |
| 20260503171151 | 49 | 18 | 7.0 | 14.0 | 0.00 | 0.78 | 0.65 | 96 | 1008.5 |
| 20260503170650 | 49 | 16 | 6.0 | 14.0 | 0.00 | 0.78 | 0.65 | 95 | 1008.5 |
| 20260503170150 | 49 | 21 | 5.0 | 14.0 | 0.00 | 0.78 | 0.65 | 95 | 1008.5 |
| 20260503160146 | 49 | 0 | 7.0 | 14.0 | 0.00 | 0.78 | 0.65 | 95 | 1008.3 |
| 20260503150638 | 50 | 1 | 6.0 | 13.0 | 0.01 | 0.78 | 0.65 | 96 | 1008.1 |
| 20260503150138 | 50 | 27 | 6.0 | 13.0 | 0.01 | 0.78 | 0.65 | 95 | 1008.1 |
| 20260503140131 | 51 | 35 | 6.0 | 12.0 | 0.01 | 0.77 | 0.64 | 96 | 1008.1 |
| 20260503131132 | 50 | 28 | 7.0 | 11.0 | 0.00 | 0.76 | 0.63 | 96 | 1007.8 |
| 20260503130631 | 50 | 42 | 6.0 | 10.0 | 0.01 | 0.76 | 0.63 | 96 | 1007.8 |
| 20260503130132 | 51 | 42 | 6.0 | 11.0 | 0.01 | 0.76 | 0.63 | 96 | 1008.0 |
| 20260503120127 | 50 | 0 | 6.0 | 14.0 | 0.00 | 0.76 | 0.62 | 96 | 1007.7 |